Data for 01/04/2018

Time Sea-Level Adjusted Pressure Absolute Pressure Temperature Relative Humidity Dew Point   
(mb) (inHg) (mb) (inHg) (C) (F) (%) (C) (F)
00:05 1024 30.24 853 25.19 -6 21.3 89 -7.4 18.6
00:10 1024 30.24 853 25.19 -6.1 21 90 -7.5 18.5
00:15 1024 30.24 853 25.19 -6.1 21.1 89 -7.5 18.4
00:20 1024 30.24 853 25.19 -6 21.3 89 -7.5 18.5
00:25 1024 30.24 853 25.19 -5.8 21.6 89 -7.3 18.8
00:30 1024 30.24 853 25.19 -5.7 21.8 88 -7.3 18.9
00:35 1024 30.24 853 25.19 -5.9 21.3 91 -7.2 19
00:40 1024 30.24 853 25.19 -5.5 22.1 89 -7 19.3
00:45 1024 30.24 853 25.19 -5.8 21.5 90 -7.2 19.1
00:50 1024 30.24 853 25.19 -5.9 21.4 92 -7 19.4
00:55 1024 30.24 853 25.19 -5.9 21.4 89 -7.4 18.6
01:00 1024 30.24 853 25.19 -6.5 20.4 92 -7.6 18.3
01:05 1024 30.24 853 25.19 -5.8 21.6 92 -6.9 19.6
01:10 1023 30.21 853 25.19 -5.8 21.6 90 -7.2 19.1
01:15 1024 30.24 853 25.19 -6.3 20.6 91 -7.5 18.5
01:20 1024 30.24 853 25.19 -6.1 21.1 93 -7.1 19.2
01:25 1024 30.24 853 25.19 -5.9 21.5 91 -7.1 19.2
01:30 1024 30.24 853 25.19 -5.9 21.4 90 -7.3 18.9
01:35 1024 30.24 853 25.19 -5.7 21.7 88 -7.3 18.8
01:40 1024 30.24 853 25.19 -6 21.1 88 -7.8 18
01:45 1024 30.24 853 25.19 -6.1 21 91 -7.4 18.7
01:50 1024 30.24 853 25.19 -5.6 22 85 -7.7 18.2
01:55 1024 30.24 853 25.19 -6.1 21 85 -8.2 17.2
02:00 1024 30.24 853 25.19 -7.2 19 87 -9.1 15.7
02:05 1024 30.24 853 25.19 -7.1 19.2 87 -8.9 16
02:10 1024 30.24 853 25.19 -7.3 19 89 -8.8 16.2
02:15 1024 30.24 853 25.19 -7.2 19.1 90 -8.5 16.7
02:20 1024 30.24 853 25.19 -6.5 20.3 90 -7.9 17.7
02:25 1024 30.24 853 25.19 -6.2 20.9 91 -7.5 18.5
02:30 1024 30.24 853 25.19 -5.7 21.8 90 -7.1 19.2
02:35 1024 30.24 853 25.19 -6 21.2 91 -7.3 18.8
02:40 1024 30.24 853 25.19 -6 21.2 91 -7.2 19
02:45 1024 30.24 853 25.19 -6 21.2 91 -7.3 18.9
02:50 1024 30.24 853 25.19 -6 21.2 91 -7.2 19.1
02:55 1024 30.24 853 25.19 -5.8 21.6 91 -7 19.4
03:00 1024 30.24 853 25.19 -5.8 21.5 91 -7.1 19.2
03:05 1024 30.24 853 25.19 -5.6 21.9 91 -6.9 19.6
03:10 1024 30.24 853 25.19 -5.3 22.4 90 -6.8 19.8
03:15 1024 30.24 853 25.19 -5.4 22.3 86 -7.4 18.6
03:20 1024 30.24 853 25.19 -6.2 20.8 85 -8.3 17.1
03:25 1024 30.24 853 25.19 -6.5 20.3 87 -8.3 17.1
03:30 1024 30.24 853 25.19 -6.5 20.4 89 -8 17.6
03:35 1024 30.24 853 25.19 -6.2 20.8 90 -7.6 18.4
03:40 1024 30.24 853 25.19 -6.1 21 91 -7.4 18.7
03:45 1024 30.24 853 25.19 -6.1 21 91 -7.4 18.6
03:50 1024 30.24 853 25.19 -6.1 21 91 -7.3 18.8
03:55 1023 30.21 853 25.19 -6 21.1 91 -7.4 18.8
04:00 1023 30.21 853 25.19 -6.2 20.9 90 -7.5 18.5
04:05 1023 30.21 853 25.19 -6.3 20.6 90 -7.7 18.2
04:10 1023 30.21 853 25.19 -6.5 20.3 90 -7.8 17.9
04:15 1023 30.21 853 25.19 -6.9 19.6 90 -8.3 17.1
04:20 1023 30.21 853 25.19 -6.9 19.5 92 -8.1 17.5
04:25 1023 30.21 852 25.16 -6.4 20.4 91 -7.7 18.1
04:30 1023 30.21 852 25.16 -6.7 20 90 -8.1 17.4
04:35 1023 30.21 852 25.16 -6.6 20 92 -7.8 18
04:40 1023 30.21 852 25.16 -6.3 20.7 92 -7.4 18.6
04:45 1023 30.21 852 25.16 -6.6 20.1 92 -7.8 18
04:50 1023 30.21 852 25.16 -6.6 20.1 92 -7.8 18
04:55 1023 30.21 852 25.16 -6.4 20.5 91 -7.6 18.3
05:00 1023 30.21 852 25.16 -6.1 21.1 91 -7.3 18.8
05:05 1023 30.21 852 25.16 -5.9 21.3 90 -7.3 18.8
05:10 1023 30.21 852 25.16 -6 21.2 89 -7.5 18.5
05:15 1023 30.21 852 25.16 -6.2 20.9 90 -7.5 18.5
05:20 1023 30.21 852 25.16 -6.2 20.8 90 -7.6 18.4
05:25 1023 30.21 852 25.16 -6.4 20.5 91 -7.6 18.3
05:30 1023 30.21 852 25.16 -6.2 20.8 91 -7.4 18.6
05:35 1023 30.21 852 25.16 -6.1 21 91 -7.3 18.8
05:40 1023 30.21 852 25.16 -5.8 21.6 91 -7 19.3
05:45 1023 30.21 852 25.16 -5.5 22.1 91 -6.8 19.8
05:50 1023 30.21 852 25.16 -5.5 22.1 91 -6.7 19.9
05:55 1023 30.21 852 25.16 -5.5 22.1 91 -6.8 19.8
06:00 1023 30.21 853 25.19 -5.6 21.9 89 -7.1 19.2
06:05 1023 30.21 853 25.19 -5.8 21.5 88 -7.5 18.5
06:10 1023 30.21 853 25.19 -6 21.2 87 -7.9 17.9
06:15 1023 30.21 853 25.19 -6.2 20.9 88 -7.8 18
06:20 1023 30.21 853 25.19 -6.3 20.7 88 -7.9 17.8
06:25 1023 30.21 853 25.19 -6.4 20.4 89 -8 17.6
06:30 1023 30.21 853 25.19 -6.5 20.4 90 -7.8 18
06:35 1023 30.21 853 25.19 -6 21.2 91 -7.3 18.9
06:40 1023 30.21 853 25.19 -5.7 21.7 90 -7.1 19.1
06:45 1023 30.21 852 25.16 -5.6 22 88 -7.3 18.8
06:50 1023 30.21 852 25.16 -5.8 21.5 88 -7.5 18.5
06:55 1023 30.21 852 25.16 -5.9 21.4 86 -7.9 17.8
07:00 1023 30.21 852 25.16 -6.3 20.6 88 -8 17.6
07:05 1023 30.21 852 25.16 -6.2 20.8 91 -7.5 18.6
07:10 1023 30.21 852 25.16 -6.1 21 87 -8 17.6
07:15 1023 30.21 852 25.16 -6.7 20 87 -8.5 16.7
07:20 1023 30.21 853 25.19 -6.8 19.7 87 -8.7 16.4
07:25 1023 30.21 852 25.16 -7 19.5 86 -9 15.9
07:30 1023 30.21 852 25.16 -6.8 19.7 86 -8.8 16.1
07:35 1023 30.21 852 25.16 -6.2 20.8 87 -8 17.6
07:40 1023 30.21 852 25.16 -5.4 22.2 86 -7.5 18.6
07:45 1023 30.21 852 25.16 -4.8 23.5 83 -7.3 18.9
07:50 1023 30.21 853 25.19 -4.6 23.6 80 -7.6 18.2
07:55 1023 30.21 853 25.19 -4.9 23.1 79 -8 17.6
08:00 1023 30.21 853 25.19 -5.2 22.7 82 -7.7 18.1
08:05 1023 30.21 853 25.19 -4.8 23.3 81 -7.6 18.3
08:10 1023 30.21 853 25.19 -4.6 23.8 80 -7.6 18.3
08:15 1023 30.21 853 25.19 -4.7 23.6 80 -7.6 18.3
08:20 1023 30.21 853 25.19 -4.4 24.1 79 -7.5 18.4
08:25 1023 30.21 853 25.19 -4.1 24.6 78 -7.3 18.8
08:30 1023 30.21 853 25.19 -3.8 25.2 77 -7.3 18.9
08:35 1023 30.21 853 25.19 -3.9 25 76 -7.5 18.5
08:40 1023 30.21 853 25.19 -4.2 24.4 76 -7.8 18
08:45 1023 30.21 853 25.19 -4.4 24.1 79 -7.6 18.4
08:50 1023 30.21 853 25.19 -3.7 25.4 75 -7.4 18.6
08:55 1023 30.21 853 25.19 -3.3 26.1 74 -7.3 18.9
09:00 1023 30.21 853 25.19 -2.7 27.1 71 -7.2 19
09:05 1023 30.21 853 25.19 -2.5 27.4 70 -7.3 18.9
09:10 1023 30.21 853 25.19 -2.5 27.5 69 -7.3 18.8
09:15 1023 30.21 853 25.19 -3.5 25.7 75 -7.3 18.9
09:20 1023 30.21 853 25.19 -3.6 25.5 74 -7.6 18.4
09:25 1023 30.21 853 25.19 -3.4 25.8 75 -7.2 19.1
09:30 1023 30.21 852 25.16 -3 26.7 73 -7.2 19
09:35 1023 30.21 852 25.16 -2.3 27.9 70 -7 19.4
09:40 1023 30.21 852 25.16 -1.4 29.5 67 -6.8 19.8
09:45 1023 30.21 852 25.16 -1.3 29.7 68 -6.5 20.3
09:50 1023 30.21 852 25.16 -0.9 30.5 66 -6.5 20.3
09:55 1023 30.21 852 25.16 -0.6 30.9 65 -6.5 20.4
10:00 1023 30.21 852 25.16 -0.2 31.6 66 -5.9 21.3
10:05 1023 30.21 852 25.16 -0.5 31 66 -6.1 21
10:10 1023 30.21 852 25.16 -1.2 29.8 66 -6.7 20
10:15 1023 30.21 852 25.16 -0.7 30.8 61 -7.3 18.9
10:20 1023 30.21 852 25.16 -0.6 30.9 59 -7.6 18.4
10:25 1023 30.21 852 25.16 -0.7 30.7 62 -7.2 19
10:30 1023 30.21 852 25.16 -1.1 30 64 -7.2 19.1
10:35 1023 30.21 852 25.16 -1.2 29.8 64 -7.3 18.9
10:40 1023 30.21 852 25.16 -1.3 29.7 63 -7.5 18.5
10:45 1023 30.21 852 25.16 -1.8 28.7 65 -7.5 18.4
10:50 1023 30.21 852 25.16 -2.1 28.3 65 -7.8 18
10:55 1023 30.21 852 25.16 -2 28.5 65 -7.6 18.3
11:00 1023 30.21 852 25.16 -2.1 28.3 67 -7.5 18.5
11:05 1023 30.21 852 25.16 -2 28.5 66 -7.5 18.5
11:10 1023 30.21 852 25.16 -1.4 29.4 64 -7.3 18.8
11:15 1023 30.21 852 25.16 -1.3 29.6 64 -7.3 18.9
11:20 1023 30.21 852 25.16 -1.3 29.6 63 -7.5 18.4
11:25 1023 30.21 852 25.16 -1 30.2 61 -7.6 18.4
11:30 1023 30.21 852 25.16 -1 30.2 63 -7.2 19.1
11:35 1022 30.18 852 25.16 -0.8 30.5 64 -6.9 19.6
11:40 1022 30.18 852 25.16 -0.9 30.4 63 -7.1 19.2
11:45 1022 30.18 852 25.16 -0.5 31.2 62 -6.9 19.5
11:50 1022 30.18 852 25.16 -0.5 31.1 60 -7.4 18.7
11:55 1022 30.18 852 25.16 -0.6 31 62 -7 19.3
12:00 1022 30.18 851 25.13 -0.7 30.8 61 -7.2 19.1
12:05 1022 30.18 851 25.13 0 32 60 -6.8 19.8
12:10 1022 30.18 851 25.13 -0.2 31.7 60 -7.1 19.2
12:15 1022 30.18 851 25.13 0.5 32.8 57 -7.1 19.3
12:20 1022 30.18 851 25.13 0.6 33.1 57 -6.9 19.6
12:25 1022 30.18 851 25.13 0.6 33 57 -7 19.4
12:30 1022 30.18 851 25.13 0.3 32.5 59 -6.9 19.6
12:35 1022 30.18 851 25.13 0.1 32.2 59 -7.1 19.3
12:40 1022 30.18 851 25.13 -0.1 31.8 59 -7.2 19.1
12:45 1022 30.18 851 25.13 -0 31.9 58 -7.2 19
12:50 1022 30.18 851 25.13 0.3 32.5 57 -7.2 19
12:55 1022 30.18 851 25.13 0.6 33.1 56 -7.2 19
13:00 1022 30.18 851 25.13 0.9 33.6 56 -7 19.4
13:05 1022 30.18 851 25.13 0.8 33.4 56 -7 19.4
13:10 1022 30.18 851 25.13 0.4 32.8 58 -7 19.4
13:15 1022 30.18 851 25.13 0.6 33 56 -7.2 19
13:20 1022 30.18 851 25.13 0.8 33.4 56 -7.1 19.3
13:25 1022 30.18 851 25.13 0.9 33.6 54 -7.3 18.9
13:30 1022 30.18 851 25.13 1 33.8 55 -7 19.5
13:35 1022 30.18 851 25.13 0.8 33.4 56 -7 19.4
13:40 1022 30.18 851 25.13 0.7 33.2 56 -7.2 19
13:45 1022 30.18 851 25.13 0.3 32.5 59 -6.9 19.5
13:50 1022 30.18 851 25.13 0.1 32.3 59 -7 19.4
13:55 1022 30.18 851 25.13 0.6 33.1 56 -7.1 19.2
14:00 1022 30.18 851 25.13 0.9 33.7 56 -6.8 19.8
14:05 1022 30.18 851 25.13 0.8 33.4 58 -6.5 20.2
14:10 1022 30.18 851 25.13 0.1 32.1 61 -6.5 20.3
14:15 1022 30.18 851 25.13 -0.2 31.7 62 -6.5 20.3
14:20 1022 30.18 851 25.13 -0.2 31.7 61 -6.8 19.7
14:25 1022 30.18 851 25.13 -0.2 31.7 62 -6.7 20
14:30 1022 30.18 851 25.13 -0.3 31.5 63 -6.5 20.4
14:35 1022 30.18 851 25.13 -0.9 30.3 66 -6.5 20.4
14:40 1022 30.18 851 25.13 -1.4 29.5 67 -6.7 20
14:45 1022 30.18 851 25.13 -1.5 29.4 67 -6.8 19.8
14:50 1022 30.18 851 25.13 -1.4 29.4 66 -7 19.4
14:55 1022 30.18 851 25.13 -1.8 28.8 67 -7.1 19.2
15:00 1022 30.18 851 25.13 -1.9 28.6 67 -7.3 18.8
15:05 1022 30.18 851 25.13 -1.8 28.7 67 -7.1 19.3
15:10 1022 30.18 851 25.13 -2.1 28.2 68 -7.2 19
15:15 1022 30.18 851 25.13 -2.1 28.2 68 -7.2 19.1
15:20 1022 30.18 851 25.13 -1.9 28.6 67 -7.2 19
15:25 1022 30.18 851 25.13 -1.5 29.3 66 -7 19.3
15:30 1022 30.18 851 25.13 -1.5 29.3 66 -7.1 19.2
15:35 1022 30.18 851 25.13 -1.5 29.3 66 -7.1 19.3
15:40 1022 30.18 851 25.13 -1.6 29.1 67 -7 19.3
15:45 1022 30.18 851 25.13 -1.8 28.8 66 -7.2 19
15:50 1022 30.18 851 25.13 -2 28.5 67 -7.2 19.1
15:55 1022 30.18 851 25.13 -2.2 28 70 -7.1 19.3
16:00 1022 30.18 851 25.13 -2.5 27.5 71 -7.1 19.2
16:05 1022 30.18 851 25.13 -2.6 27.2 70 -7.4 18.7
16:10 1022 30.18 851 25.13 -2.9 26.7 72 -7.4 18.8
16:15 1022 30.18 851 25.13 -3.2 26.3 73 -7.3 18.9
16:20 1022 30.18 851 25.13 -3.4 25.9 75 -7.3 18.9
16:25 1022 30.18 851 25.13 -3.6 25.6 76 -7.3 18.9
16:30 1022 30.18 851 25.13 -3.7 25.3 76 -7.3 18.8
16:35 1022 30.18 851 25.13 -3.8 25.2 76 -7.4 18.6
16:40 1022 30.18 851 25.13 -3.8 25.2 76 -7.4 18.6
16:45 1022 30.18 851 25.13 -3.7 25.3 76 -7.4 18.7
16:50 1022 30.18 851 25.13 -3.7 25.4 75 -7.4 18.7
16:55 1022 30.18 851 25.13 -3.8 25.2 75 -7.5 18.5
17:00 1022 30.18 851 25.13 -3.9 24.9 76 -7.5 18.4
17:05 1022 30.18 851 25.13 -3.8 25.2 76 -7.5 18.6
17:10 1022 30.18 851 25.13 -3.6 25.6 74 -7.6 18.3
17:15 1022 30.18 851 25.13 -3.6 25.6 73 -7.8 18
17:20 1022 30.18 851 25.13 -3.7 25.3 73 -7.9 17.7
17:25 1022 30.18 851 25.13 -3.9 25.1 74 -7.8 18
17:30 1022 30.18 851 25.13 -4 24.8 75 -7.8 18
17:35 1022 30.18 851 25.13 -4.2 24.5 76 -7.7 18.1
17:40 1022 30.18 851 25.13 -4.2 24.4 77 -7.7 18.1
17:45 1022 30.18 851 25.13 -4.2 24.4 77 -7.6 18.3
17:50 1022 30.18 851 25.13 -4.2 24.4 78 -7.6 18.4
17:55 1022 30.18 851 25.13 -4.2 24.5 78 -7.5 18.5
18:00 1022 30.18 851 25.13 -4.1 24.6 78 -7.5 18.6
18:05 1022 30.18 851 25.13 -4.2 24.5 77 -7.5 18.4
18:10 1022 30.18 851 25.13 -4.1 24.5 78 -7.4 18.6
18:15 1022 30.18 851 25.13 -4 24.8 77 -7.5 18.5
18:20 1022 30.18 851 25.13 -4.2 24.5 78 -7.5 18.4
18:25 1022 30.18 851 25.13 -4.4 24.1 80 -7.3 18.8
18:30 1022 30.18 851 25.13 -4.4 24 81 -7.3 18.9
18:35 1022 30.18 851 25.13 -4.3 24.3 78 -7.5 18.5
18:40 1022 30.18 851 25.13 -4.2 24.5 78 -7.5 18.4
18:45 1022 30.18 851 25.13 -4.2 24.5 77 -7.6 18.4
18:50 1022 30.18 851 25.13 -4.2 24.5 78 -7.5 18.5
18:55 1022 30.18 851 25.13 -4.1 24.6 78 -7.4 18.7
19:00 1022 30.18 851 25.13 -4.1 24.6 78 -7.4 18.7
19:05 1022 30.18 851 25.13 -4.2 24.5 78 -7.5 18.5
19:10 1022 30.18 851 25.13 -4.2 24.4 78 -7.5 18.6
19:15 1021 30.15 851 25.13 -4.1 24.6 78 -7.4 18.7
19:20 1021 30.15 851 25.13 -4.1 24.5 78 -7.4 18.7
19:25 1021 30.15 851 25.13 -4 24.8 77 -7.4 18.7
19:30 1021 30.15 851 25.13 -3.8 25.1 78 -7.1 19.2
19:35 1022 30.18 851 25.13 -3.4 25.8 77 -6.9 19.7
19:40 1022 30.18 851 25.13 -3.2 26.2 76 -6.9 19.6
19:45 1021 30.15 851 25.13 -3.4 26 76 -6.9 19.5
19:50 1021 30.15 851 25.13 -3.4 25.9 76 -7 19.5
19:55 1021 30.15 851 25.13 -3 26.6 74 -7 19.5
20:00 1021 30.15 851 25.13 -3.1 26.4 75 -6.9 19.6
20:05 1021 30.15 851 25.13 -3.4 26 76 -6.9 19.5
20:10 1021 30.15 851 25.13 -3.5 25.7 77 -6.9 19.5
20:15 1021 30.15 851 25.13 -3.4 25.9 78 -6.8 19.8
20:20 1021 30.15 851 25.13 -3.3 26 78 -6.6 20
20:25 1021 30.15 851 25.13 -3.3 26.1 79 -6.4 20.5
20:30 1021 30.15 851 25.13 -3.3 26.1 79 -6.4 20.6
20:35 1021 30.15 851 25.13 -3 26.7 81 -5.8 21.5
20:40 1021 30.15 851 25.13 -2.5 27.6 77 -5.9 21.3
20:45 1021 30.15 851 25.13 -2.4 27.6 77 -5.9 21.4
20:50 1021 30.15 851 25.13 -2.3 27.8 77 -5.9 21.4
20:55 1021 30.15 851 25.13 -2.3 28 76 -5.9 21.4
21:00 1021 30.15 851 25.13 -2.3 27.8 77 -5.9 21.5
21:05 1022 30.18 851 25.13 -2.4 27.7 77 -5.8 21.5
21:10 1022 30.18 851 25.13 -2.4 27.7 78 -5.8 21.5
21:15 1022 30.18 851 25.13 -2.2 28 77 -5.7 21.8
21:20 1022 30.18 851 25.13 -2 28.3 76 -5.6 21.8
21:25 1022 30.18 851 25.13 -1.9 28.6 76 -5.7 21.8
21:30 1022 30.18 851 25.13 -2.2 28 76 -5.8 21.5
21:35 1022 30.18 851 25.13 -2.5 27.6 78 -5.8 21.6
21:40 1022 30.18 851 25.13 -2.2 28.1 77 -5.7 21.7
21:45 1022 30.18 851 25.13 -2.2 28 77 -5.7 21.8
21:50 1022 30.18 851 25.13 -1.9 28.5 76 -5.6 21.9
21:55 1022 30.18 851 25.13 -1.9 28.5 76 -5.6 21.9
22:00 1022 30.18 851 25.13 -2 28.5 76 -5.6 21.9
22:05 1022 30.18 851 25.13 -1.8 28.7 76 -5.5 22
22:10 1022 30.18 851 25.13 -1.7 28.9 75 -5.6 22
22:15 1022 30.18 851 25.13 -1.8 28.8 76 -5.5 22.1
22:20 1022 30.18 851 25.13 -1.8 28.7 76 -5.6 22
22:25 1022 30.18 851 25.13 -1.7 29 75 -5.5 22.1
22:30 1021 30.15 851 25.13 -1.7 28.9 75 -5.5 22.1
22:35 1021 30.15 851 25.13 -1.7 29 75 -5.5 22.1
22:40 1021 30.15 851 25.13 -1.7 29 75 -5.6 22
22:45 1021 30.15 851 25.13 -1.8 28.8 76 -5.4 22.2
22:50 1021 30.15 851 25.13 -1.8 28.7 77 -5.4 22.3
22:55 1021 30.15 851 25.13 -1.8 28.8 77 -5.3 22.5
23:00 1021 30.15 851 25.13 -1.6 29.2 76 -5.2 22.6
23:05 1021 30.15 851 25.13 -1.4 29.4 75 -5.3 22.4
23:10 1021 30.15 851 25.13 -1.8 28.8 75 -5.6 21.9
23:15 1021 30.15 851 25.13 -2.1 28.2 76 -5.9 21.5
23:20 1021 30.15 851 25.13 -2.4 27.7 77 -6 21.3
23:25 1021 30.15 850 25.1 -2.7 27.1 77 -6.1 21
23:30 1021 30.15 851 25.13 -3.4 26 80 -6.3 20.7
23:35 1021 30.15 851 25.13 -3.5 25.7 80 -6.4 20.5
23:40 1021 30.15 851 25.13 -3.3 26 80 -6.3 20.6
23:45 1021 30.15 851 25.13 -3.1 26.4 79 -6.2 20.8
23:50 1021 30.15 851 25.13 -3.1 26.5 79 -6.3 20.7
23:55 1021 30.15 851 25.13 -3.2 26.3 79 -6.3 20.6
24:00 1022 30.18 851 25.13 -3.2 26.2 79 -6.3 20.6